Weather History for Hamilton, OH

Change the Weather History Date:

Tuesday, April 3, 2012

  Actual Average (KCVG) Record (KCVG)
Temperature  
Mean Temperature 63 °F 50 °F  
Max Temperature 80 °F 60 °F 84 °F (2012)
Min Temperature 46 °F 40 °F 23 °F (1992)
Degree Days  
Heating Degree Days 2 15  
Month to date heating degree days 47  
Since 1 July heating degree days 4540  
Cooling Degree Days 0 0  
Month to date cooling degree days 0  
Year to date cooling degree days 0  
Growing Degree Days 13 (Base 50)    
Moisture  
Dew Point 47 °F    
Average Humidity 57    
Maximum Humidity 78    
Minimum Humidity 36    
Precipitation  
Precipitation 0.00 in 0.12 in 2.09 in (1950)
Month to date precipitation 0.38  
Year to date precipitation 10.15  
Snow  
Snow 0.00 in 0.00 in 0.40 in (1936)
Month to date snowfall 0.1  
Since 1 July snowfall 21.7  
Snow Depth -    
Sea Level Pressure  
Sea Level Pressure 29.89 in    
Wind  
Wind Speed 2 mph (East)    
Max Wind Speed 8 mph    
Max Gust Speed -    
Visibility 10 miles    
Events      
T = Trace of Precipitation, MM = Missing Value Source: NWS Daily Summary

Daily Weather History Graph

Daily Weather History Graph

Search for Another Location

Airport:

Trip Planner

Search our weather history database for the weather conditions in past years. The results will help you decide how hot, cold, wet, or windy it might be!

Date:

Astronomy

Apr. 03, 2012 Rise Set
Actual Time 7:18 AM EDT 8:04 PM EDT
Civil Twilight 6:51 AM EDT 8:31 PM EDT
Nautical Twilight 6:19 AM EDT 9:03 PM EDT
Astronomical Twilight 5:46 AM EDT 9:37 PM EDT
Moon 4:48 PM EDT (4/3) 5:05 AM EDT (4/3)
Length of Visible Light 13h 40m
Length of Day
12h 45m
Waxing Gibbous, 86% of the Moon is Illuminated
Apr 3
Waxing Gibbous
Apr 6
Full
Apr 13
Last Quarter
Apr 21
New
Apr 29
First Quarter

Hourly Weather History & Observations

Time (EDT) Temp. Heat Index Dew Point Humidity Pressure Visibility Wind Dir Wind Speed Gust Speed Precip Events Conditions
12:53 AM 48.9 °F - 39.0 °F 69% 29.97 in - Calm Calm - N/A   Clear
1:53 AM 50.0 °F - 39.9 °F 68% 29.96 in - Calm Calm - N/A   Partly Cloudy
2:53 AM 50.0 °F - 39.9 °F 68% 29.96 in - Calm Calm - N/A   Partly Cloudy
3:53 AM 51.1 °F - 41.0 °F 68% 29.95 in - Calm Calm - N/A   Scattered Clouds
4:53 AM 50.0 °F - 39.0 °F 66% 29.93 in - Calm Calm - N/A   Partly Cloudy
5:53 AM 48.9 °F - 39.9 °F 71% 29.91 in - ENE 5.8 mph - N/A   Scattered Clouds
6:53 AM 46.9 °F - 39.0 °F 74% 29.90 in - East 5.8 mph - N/A   Clear
7:53 AM 48.0 °F - 41.0 °F 77% 29.95 in - NE 4.6 mph - N/A   Clear
8:53 AM 55.0 °F - 39.9 °F 57% 29.96 in - East 3.5 mph - N/A   Partly Cloudy
9:53 AM 61.0 °F - 39.9 °F 46% 29.96 in - Calm Calm - N/A   Clear
10:53 AM 66.0 °F - 37.9 °F 36% 29.95 in 10.0 mi Calm Calm - N/A   Clear
11:53 AM 69.1 °F - 42.1 °F 38% 29.94 in 10.0 mi Calm Calm - N/A   Unknown
12:53 PM 73.0 °F - 46.0 °F 38% 29.92 in 10.0 mi Calm Calm - N/A   Unknown
1:53 PM 75.9 °F - 52.0 °F 43% 29.91 in 10.0 mi West 4.6 mph - N/A   Clear
2:53 PM 78.1 °F - 54.0 °F 43% 29.89 in 10.0 mi Calm Calm - N/A   Clear
3:53 PM 80.1 °F 80.1 °F 55.0 °F 42% 29.85 in 10.0 mi Calm Calm - N/A   Clear
4:53 PM 79.0 °F - 55.0 °F 44% 29.82 in 10.0 mi East 4.6 mph - N/A   Clear
5:53 PM 78.1 °F - 57.9 °F 50% 29.80 in 10.0 mi East 4.6 mph - N/A   Clear
6:53 PM 73.9 °F - 54.0 °F 50% 29.81 in 10.0 mi East 8.1 mph - N/A   Clear
7:53 PM 69.1 °F - 52.0 °F 54% 29.81 in 10.0 mi East 4.6 mph - N/A   Clear
8:53 PM 68.0 °F - 52.0 °F 56% 29.81 in 10.0 mi East 3.5 mph - N/A   Clear
9:53 PM 66.9 °F - 52.0 °F 59% 29.81 in 10.0 mi Calm Calm - N/A   Clear
10:53 PM 64.9 °F - 55.9 °F 73% 29.81 in 10.0 mi Calm Calm - N/A   Clear
11:53 PM 64.0 °F - 57.0 °F 78% 29.81 in 10.0 mi Calm Calm - N/A   Clear